TV-SAT

operational
NORAD ID: 18570 Int'l Des: 1987-095 Owner: DBP Country: D
HEOCIRCULAR

Über TV-SAT

Beschreibung wird geladen...

Live-Position

3D-Globus wird geladen...

Nächste Überflüge

Höhenverlauf

Altitude vs Time

uPlot chart will show altitude changes over time

Zweizeiliger Elementsatz

1 18570U 87095A 26061.52764441 .00000027 00000-0 00000-0 0 9997
2 18570 11.3946 328.6434 0060123 130.0407 136.5293 0.98917923127786
Epoch: 2. März 2026 • Age: 25 hours

Aktueller Status

Höhe 35989.9 km
Geschwindigkeit 3.07 km/s
Subsatellitenpunkt 11.34°N, 118.05°W
Startdatum 21. Nov. 1987
Alter 38.2 years
Typ other

Technische Details

Klassifizierung Payload
Masse 2080.00 kg
Trockenmasse 1025.00 kg
Gesamtmasse 2080.00 kg
Länge 7.20 m
Durchmesser 1.60 m
Spannweite 19.30 m
Form Box + 2 Pan
Hersteller MBB/AESPC
Bus-Typ Spacebus 300
Phasenstatus In Orbit
Besitzer/Staat DBP/D

Große Konstellationen

Loading constellations...